THOR AGENA D R/B, 2825

Orbit data source: Space-Track

THOR AGENA D R/B, 2825 is space debris in LEO originally from a launch on Wed, 31 May 1967 UTC launched from the Air Force Western Test Range (AFWTR). Debris objects in space refer to the collection of defunct objects orbiting the Earth. Examples of debris include non-operational satellites, rocket bodies, and fragments generated from explosions, collisions, or faulty payload assembly.

Loading next visibility...
Identifier
2825, 1967-053B
Orbit
LEO
Country
Flag of USUS
Related business
Manufacturer
LMSC
Mission
Spacecraft
Bus & Motor
AGENA D, Unknown motor
Mass
600 kg wet, 600 kg dry
Launch date (UTC)
1967-05-31 (58 years ago)
Launch vehicle
Unknown
Launch site
Air Force Western Test Range (AFWTR)
Object type
Payload
Rocket body
Debris
Shape & HBR
Cyl + 1 Nozzle, 3.1 m
Radar Cross Section
8.306 m², Large (>1 m²)

Expand to show TLE details & history
Last TLE update: 14 hours ago

TLE from 14 hours ago
0 THOR AGENA D R/B
1 02825U 67053B   25258.55889516  .00000049  00000-0  72556-4 0  9999
2 02825  69.9717 303.1082 0007026 194.1339 165.9572 13.97654030 53720
Epoch: 2025-09-15T13:24Z
TLE epoch observation values (Epoch: 2025-09-15T13:24:48.541Z)
Latitude
-0.00002°
Longitude
107.14412°
Altitude
909.205 km
Speed
7.395 km/s
True Right ascension
20h 12m 25s
True Declination
0° 00' 00"
Sunlit
Object was in full shadow at epoch
Visualization orbit readout
Latitude
Unknown
Longitude
Unknown
Altitude
Unknown
Speed
Unknown
Apparent Right ascension
Unknown
Apparent Declination
Unknown
Sunlit
N/A
Visualization observer readout
Local Sidereal Time
19:38:17
Azimuth
Unknown
Elevation
Unknown
Doppler factor
Unknown
Orbital elements
Apogee altitude
905.088 km
Perigee altitude
894.861 km
Semi-major axis
7,278.112 km
Eccentricity
0.0007
Inclination
69.9717°
RAAN
303.1082°
Arg. of periapsis
194.1339°
True anomaly
165.97672°
Mean anomaly
165.9572°
Eccentric anomaly
165.96696°
Mean motion
3.49555 °/min
Orbital period
102.99 mins
BSTAR
0.000072556
Loading maneuver chart data...
Computing Atmospheric mass density...
Loading historical data...
Loading historical data...
Loading historical data...
Loading historical data...
Loading historical data...
Loading historical data...
Loading historical data...

Documentation

Showing up to 5 results
|